Location: Oshawa
(43.9000°N, 78.8670°W)
Time: 01:12:00
(UTC-05:00)

Thor Agena Rocket - Visible Passes

Search period start: 12 December 2017 00:00
Search period end: 22 December 2017 00:00
Orbit: 759 x 808 km, 99.1° (Epoch: 11 December)

Date Brightness Start Highest point End Pass type
(mag) Time Alt. Az. Time Alt. Az. Time Alt. Az.
12 Dec 4.5 05:41:49 10° SE 05:46:36 46° ENE 05:51:27 10° N visible
12 Dec 5.5 17:57:59 12° ESE 17:57:59 12° ESE 17:58:46 10° ESE visible
12 Dec 4.8 19:38:34 33° SSW 19:38:34 33° SSW 19:41:23 10° SSW visible
13 Dec 5.5 05:11:30 10° ESE 05:15:34 25° ENE 05:19:41 10° N visible
13 Dec 3.9 06:49:51 10° S 06:54:38 43° W 06:59:28 10° NNW visible
13 Dec 4.5 19:06:52 34° SSE 19:06:52 34° SSE 19:09:58 10° S visible
13 Dec 6.4 20:47:27 11° WSW 20:47:27 11° WSW 20:47:41 10° WSW visible
14 Dec 6.2 04:42:05 10° E 04:44:41 14° ENE 04:47:18 10° NNE visible
14 Dec 3.4 06:18:14 10° SSE 06:23:16 84° WSW 06:28:23 10° NNW visible
14 Dec 4.8 18:35:10 23° SE 18:35:10 23° SE 18:37:54 10° SSE visible
14 Dec 5.7 20:15:46 21° WSW 20:15:46 21° WSW 20:17:36 10° SW visible
15 Dec 4.3 05:47:12 10° SE 05:52:04 51° ENE 05:56:59 10° N visible
15 Dec 5.4 18:03:28 13° ESE 18:03:28 13° ESE 18:04:46 10° SE visible
15 Dec 4.9 19:44:03 32° SSW 19:44:03 32° SSW 19:46:51 10° SSW visible
16 Dec 5.4 05:16:47 10° ESE 05:21:00 28° ENE 05:25:17 10° N visible
16 Dec 4.0 06:55:26 10° SSW 07:00:08 39° W 07:04:54 10° NNW visible
16 Dec 4.5 19:12:21 36° SSE 19:12:21 36° SSE 19:15:33 10° S visible
16 Dec 6.5 20:52:56 10° WSW 20:52:56 10° WSW 20:52:57 10° WSW visible
17 Dec 6.1 04:47:10 10° E 04:50:06 16° ENE 04:53:02 10° NNE visible
17 Dec 3.4 06:23:43 10° S 06:28:45 76° WSW 06:33:52 10° NNW visible
17 Dec 4.7 18:40:38 26° SE 18:40:38 26° SE 18:43:35 10° SSE visible
17 Dec 5.8 20:21:14 20° WSW 20:21:14 20° WSW 20:22:59 10° SW visible
18 Dec 4.1 05:52:36 10° SSE 05:57:31 56° ENE 06:02:31 10° N visible
18 Dec 5.3 18:08:56 15° ESE 18:08:56 15° ESE 18:10:40 10° SE visible
18 Dec 5.0 19:49:31 32° SW 19:49:31 32° SW 19:52:19 10° SSW visible
19 Dec 5.2 05:22:04 10° SE 05:26:26 30° ENE 05:30:52 10° N visible
19 Dec 4.2 07:01:02 10° SSW 07:05:38 35° W 07:10:19 10° NNW visible
19 Dec 4.4 19:17:48 38° S 19:17:48 38° S 19:21:06 10° S visible
20 Dec 6.0 04:52:18 10° E 04:55:31 17° ENE 04:58:44 10° NNE visible
20 Dec 3.5 06:29:13 10° S 06:34:14 69° WSW 06:39:21 10° NNW visible
20 Dec 4.6 18:46:05 28° SE 18:46:05 28° SE 18:49:15 10° SSE visible
20 Dec 5.9 20:26:41 19° WSW 20:26:41 19° WSW 20:28:20 10° SW visible
21 Dec 3.9 05:58:00 10° SSE 06:02:59 62° ENE 06:08:03 10° N visible
21 Dec 5.2 18:14:22 17° ESE 18:14:22 17° ESE 18:16:32 10° SE visible
21 Dec 5.0 19:54:58 32° SW 19:54:58 32° SW 19:57:47 10° SSW visible
